Regional Weather Roundup
Issued by NWS

Home | Current Version | Previous Version | Graphics & Text | Print | Product List | Glossary On
Versions: 1 2 3 4 5 6 7 8 9 10 11 12 13 14 15 16 17 18 19 20 21 22 23 24 25 26 27 28 29 30 31 32 33 34 35 36 37 38 39 40 41 42 43 44 45 46 47 48 49 50
000
ASUS43 KBIS 250231
RWRND
NORTH DAKOTA REGIONAL WEATHER ROUNDUP
NATIONAL WEATHER SERVICE EASTERN NORTH DAKOTA/GRAND FORKS ND
900 PM CDT TUE APR 24 2018

  NOTE: "FAIR" INDICATES FEW OR NO CLOUDS BELOW 12,000 FEET WITH NO
  SIGNIFICANT WEATHER AND/OR OBSTRUCTIONS TO VISIBILITY.

NDZ001>003-009>011-017-250300-
...NORTHWEST NORTH DAKOTA...

CITY           SKY/WX    TMP DP  RH WIND       PRES   REMARKS
WILLISTON      FAIR      58  23  26 SW3       30.28F
MINOT          FAIR      55  17  22 SW5       30.28F
MINOT AFB      FAIR      50  25  38 SW9       30.27F
$$

NDZ018>021-031>035-040>046-250300-
...SOUTHWEST NORTH DAKOTA...

CITY           SKY/WX    TMP DP  RH WIND       PRES   REMARKS
BISMARCK       FAIR      52  23  32 W6        30.35S
DICKINSON      FAIR      46  31  55 SW12      30.33F
GARRISON         N/A     44  27  51 W5        30.32F
HETTINGER      FAIR      42  27  55 W3        30.38F
$$

NDZ004>008-012>016-024-026-027-054-250300-
...NORTHEAST NORTH DAKOTA...

CITY           SKY/WX    TMP DP  RH WIND       PRES   REMARKS
GRAND FORKS    FAIR      41  32  70 N3        30.33S
GRAND FORKS AF FAIR      40  26  57 N3        30.33S
DEVILS LAKE    FAIR      48  28  46 SE3       30.32F
$$

NDZ022-023-025-028>030-036>039-047>053-250300-
...SOUTHEAST NORTH DAKOTA...

CITY           SKY/WX    TMP DP  RH WIND       PRES   REMARKS
JAMESTOWN      FAIR      44  31  60 N5        30.33S
FARGO          FAIR      42  30  62 N8        30.33S
WAHPETON       FAIR      45  28  53 N14G20    30.33R
$$



USA.gov is the U.S. government's official web portal to all federal, state and local government web resources and services.